Regional Weather Roundup
Issued by NWS

Home | Current Version | Previous Version | Text Only | Print | Product List | Glossary Off
Versions: 1 2 3 4 5 6 7 8 9 10 11 12 13 14 15 16 17 18 19 20 21 22 23 24 25 26 27 28 29 30 31 32 33 34 35 36 37 38 39 40 41 42 43 44 45 46 47 48 49 50

000
ASUS43 KFSD 191610
RWRSD

WEATHER ROUNDUP FOR SOUTH DAKOTA
NATIONAL WEATHER SERVICE SIOUX FALLS SD
1100 AM CDT SAT AUG 19 2017

NOTE: "FAIR" INDICATES FEW OR NO CLOUDS BELOW 12,000 FEET WITH NO
SIGNIFICANT WEATHER AND/OR OBSTRUCTIONS TO VISIBILITY.


SDZ001>005-009-010-012>017-191700-
NORTHWEST AND NORTH CENTRAL SOUTH DAKOTA

CITY           SKY/WX    TMP DP  RH WIND       PRES   REMARKS
BUFFALO          N/A     82  49  31 NW13      29.80S
FAITH            N/A     77  55  46 SW9       29.84R
MOBRIDGE       SUNNY     75  62  64 S9        29.81F
$$

SDZ012>016-024>037-041>051-057-063-072>074-191700-
SOUTHWEST AND SOUTH CENTRAL SOUTH DAKOTA

CITY           SKY/WX    TMP DP  RH WIND       PRES   REMARKS
RAPID CTY ARPT SUNNY     80  55  42 CALM      29.87F
PIERRE         SUNNY     79  58  48 S15       29.83S
CUSTER         SUNNY     82  33  17 W3        30.05S
ELLSWORTH AFB  SUNNY     81  52  36 CALM      29.87S
PHILIP         SUNNY     83  55  38 VRB6      29.82F
PINE RIDGE     SUNNY     80  54  40 W12       29.91S
SPEARFISH      FAIR      86  43  22 VRB7      29.93R
WINNER         FAIR      81  62  52 S15       29.88F
$$

SDZ004>011-016>023-039-040-191700-
NORTHEAST SOUTH DAKOTA

CITY           SKY/WX    TMP DP  RH WIND       PRES   REMARKS
ABERDEEN       SUNNY     71  62  73 S14       29.89F
WATERTOWN      SUNNY     70  62  76 S9        29.94F
BROOKINGS      SUNNY     67  62  84 SE7       29.97S
SISSETON         N/A     76  62  62 S9        29.89F
$$

SDZ017-020-022-023-036>040-048>070-191700-
SOUTHEAST SOUTH DAKOTA

CITY           SKY/WX    TMP DP  RH WIND       PRES   REMARKS
SIOUX FALLS    MOSUNNY   69  63  81 E5        29.96F
HURON          SUNNY     72  62  71 MISG      29.92S
CHAMBERLAIN    SUNNY     78  61  56 E10       29.89F
MITCHELL       SUNNY     73  62  68 SE13      29.94S
$$

ABBREVIATIONS USED IN REMARKS
   TC - TEMPERATURE IN CELSIUS
  WCI - WIND CHILL INDEX
   HX - HEAT INDEX
  VSB - VISIBILITY





USA.gov is the U.S. government's official web portal to all federal, state and local government web resources and services.